Regional Weather Roundup
Issued by NWS Charleston, WV

Home | Current Version | Previous Version | Text Only | Print | Product List | Glossary On
Versions: 1 2 3 4 5 6 7 8 9 10 11 12 13 14 15 16 17 18 19 20 21 22 23 24 25 26 27 28 29 30 31 32 33 34 35 36 37 38 39 40 41 42 43 44 45 46 47 48 49 50
000
ASUS41 KRLX 021110
RWRRLX
West Virginia Regional Weather Roundup
National Weather Service Charleston WV
700 AM EDT MON MAY 02 2016

Note: "fair" indicates few or no clouds below 12,000 feet with no
significant weather and/or obstructions to visibility.

WVZ003-021200-
Northern Panhandle of West Virginia

CITY           SKY/WX    TMP DP  RH WIND       PRES   REMARKS
WHEELING         N/A     58  56  93 MISG      29.89R
$$

WVZ009-021200-
Northwest West Virginia

CITY           SKY/WX    TMP DP  RH WIND       PRES   REMARKS
PARKERSBURG      N/A     59  57  93 S6        29.94R
$$

WVZ006-021200-
Western West Virginia

CITY           SKY/WX    TMP DP  RH WIND       PRES   REMARKS
HUNTINGTON     MOCLDY    62  59  90 VRB3      29.94R
$$

WVZ015-021200-
West Central West Virginia

CITY           SKY/WX    TMP DP  RH WIND       PRES   REMARKS
CHARLESTON     MOCLDY    65  60  84 W8        29.95R
$$

WVZ022-031-021200-
North Central West Virginia

CITY           SKY/WX    TMP DP  RH WIND       PRES   REMARKS
CLARKSBURG     CLOUDY    59  57  93 S6        29.93R
MORGANTOWN       N/A     59  55  87 S5        29.93R
$$

WVZ025-035-042-045-021200-
Southern West Virginia

CITY           SKY/WX    TMP DP  RH WIND       PRES   REMARKS
BECKLEY        CLOUDY    61  59  93 SW8       30.03R
LOGAN          NOT AVBL
BLUEFIELD      CLOUDY    60  58  92 SW9       30.05R
LEWISBURG      FOG       55  55 100 CALM      30.02R VSB<1/4
$$

WVZ047-021200-
Northern Mountains of West Virginia

CITY           SKY/WX    TMP DP  RH WIND       PRES   REMARKS
ELKINS         LGT RAIN  58  55  90 CALM      29.98R FOG
$$

WVZ052-021200-
Eastern Panhandle of West Virginia

CITY           SKY/WX    TMP DP  RH WIND       PRES   REMARKS
MARTINSBURG    LGT RAIN  54  53  97 SE3       29.95S FOG
PETERSBURG     LGT RAIN  60  59  97 SE7       29.97R
$$



USA.gov is the U.S. government's official web portal to all federal, state and local government web resources and services.